DECAYED

STARLINK-1010, 44716 (Decayed)

Orbit data source: Space-Track

STARLINK-1010, 44716 was a payload satellite owned by SpaceX/Seattle (US) in LEO that was launched on Mon, 11 Nov 2019 UTC via an FALCON 9 launch vehicle from the Air Force Eastern Test Range (AFETR). Payload-class satellites include a variety of spacecraft equipped with specific instruments for various scientific and technological missions. These include communications satellites like Starlink; space stations such as the ISS; scientific satellites like the Hubble; Earth observation satellites from companies like Planet Labs, Umbra, and HawkEye 360; GPS; miniature CubeSats for education and research; and military/defense satellites.

Not visible in the next 10 days
Identifier
44716, 2019-074D
Orbit
Decayed
Country
Flag of USUS
Related business
Manufacturer
SpaceX/Seattle
Mission
Decayed Commercial Communications
Bus & Motor
STARLINK, Unknown motor
Mass
260 kg wet, ~248 kg dry
Launch date (UTC)
2019-11-11 (7 years ago)
Launch vehicle
FALCON 9
Launch site
Air Force Eastern Test Range (AFETR)
Object type
Payload
Rocket body
Debris
Shape & HBR
Box + 1 Pan, 10.1 m
Radar Cross Section
13.562 m², Large (>1 m²)

Expand to show TLE details & history
Last TLE update: 7 months ago

TLE from 7 months ago
0 STARLINK-1010
1 44716U 19074D   25319.37832659  .08752573  12489-4  31625-3 0  9991
2 44716  53.0263 253.7273 0001548 273.5151  86.5720 16.44501369332706
Epoch: 2025-11-15T09:04Z
TLE epoch observation values (Epoch: 2025-11-15T09:04:47.417Z)
Latitude
-0.00003°
Longitude
62.82138°
Altitude
154.724 km
Speed
7.815 km/s
True Right ascension
16h 54m 54s
True Declination
0° 00' 00"
Sunlit
Object was in daylight at epoch
Visualization orbit readout
Latitude
Unknown
Longitude
Unknown
Altitude
Unknown
Speed
Unknown
Apparent Right ascension
Unknown
Apparent Declination
Unknown
Sunlit
N/A
Visualization observer readout
Local Sidereal Time
21:38:25
Azimuth
Unknown
Elevation
Unknown
Doppler factor
Unknown
Orbital elements
Apogee altitude
155.158 km
Perigee altitude
153.136 km
Semi-major axis
6,532.284 km
Eccentricity
0.00015
Inclination
53.0263°
RAAN
253.7273°
Arg. of periapsis
273.5151°
True anomaly
86.58971°
Mean anomaly
86.572°
Eccentric anomaly
86.58085°
Mean motion
4.11098 °/min
Orbital period
87.57 mins
BSTAR
0.00031625
Loading maneuver chart data...
Computing Atmospheric mass density...

Documentation

Showing up to 5 results
|